When you browse on this site, cookies collect data to enhance your experience and personalize the content and advertising you see.
Visit our Privacy Policy to learn more. By continuing to use the site, you agree to this use of cookies and data.
  • In Sweden
  • List of Countries
  • For 7 days
  • Water Temperature
  • Satellite Maps
  • Weather Map
  • Weather Widgets
  • user-avatar
    Login

    Hourly Weather Osowie

    Today, 23 April, Tuesday

    Time Temperature Precipitation Wind Pressure Humidity
    00:00 +8°C° 0 mm 6 mps 757 mmHg 57%
    01:00 +8°C° 0 mm 6 mps 757 mmHg 58%
    02:00 +8°C° 0 mm 6 mps 757 mmHg 57%
    03:00 +8°C° 0 mm 7 mps 757 mmHg 56%
    04:00 +6°C° 0 mm 7 mps 756 mmHg 55%
    05:00 +7°C° 0 mm 8 mps 756 mmHg 54%
    06:00 +8°C° 0 mm 9 mps 756 mmHg 52%
    07:00 +9°C° 0 mm 10 mps 756 mmHg 51%
    08:00 +11°C° 0 mm 10 mps 756 mmHg 48%
    09:00 +12°C° 0 mm 11 mps 756 mmHg 45%
    10:00 +14°C° 0 mm 11 mps 756 mmHg 43%
    11:00 +14°C° 0 mm 11 mps 755 mmHg 42%
    12:00 +16°C° 0 mm 11 mps 755 mmHg 42%
    13:00 +17°C° 0 mm 11 mps 755 mmHg 41%
    14:00 +17°C° 0 mm 11 mps 754 mmHg 42%
    15:00 +17°C° 0 mm 10 mps 754 mmHg 43%
    16:00 +17°C° 0 mm 10 mps 754 mmHg 44%
    17:00 +16°C° 0 mm 9 mps 754 mmHg 46%
    18:00 +15°C° 0 mm 8 mps 754 mmHg 49%
    19:00 +12°C° 0 mm 7 mps 754 mmHg 51%
    20:00 +12°C° 0 mm 8 mps 754 mmHg 51%
    21:00 +12°C° 0 mm 8 mps 754 mmHg 52%
    22:00 +11°C° 0 mm 8 mps 754 mmHg 52%
    23:00 +11°C° 0 mm 8 mps 754 mmHg 53%

    Tomorrow, 24 April, Wednesday

    Time Temperature Precipitation Wind Pressure Humidity
    00:00 +10°C° 0 mm 8 mps 753 mmHg 55%
    01:00 +10°C° 0 mm 7 mps 753 mmHg 56%
    02:00 +10°C° 0 mm 7 mps 753 mmHg 56%
    03:00 +10°C° 0 mm 8 mps 753 mmHg 57%
    04:00 +9°C° 0 mm 8 mps 753 mmHg 57%
    05:00 +10°C° 0 mm 8 mps 753 mmHg 59%
    06:00 +10°C° 0 mm 8 mps 753 mmHg 60%
    07:00 +11°C° 0 mm 8 mps 753 mmHg 62%
    08:00 +12°C° 0 mm 9 mps 753 mmHg 60%
    09:00 +13°C° 0 mm 9 mps 753 mmHg 59%
    10:00 +16°C° 0 mm 9 mps 753 mmHg 57%
    11:00 +17°C° 0 mm 9 mps 753 mmHg 56%
    12:00 +18°C° 0 mm 9 mps 753 mmHg 54%
    13:00 +19°C° 0 mm 9 mps 753 mmHg 53%
    14:00 +20°C° 0 mm 8 mps 753 mmHg 55%
    15:00 +20°C° 0 mm 8 mps 752 mmHg 56%
    16:00 +18°C° 0 mm 7 mps 752 mmHg 58%
    17:00 +17°C° 0 mm 7 mps 752 mmHg 62%
    18:00 +16°C° 0 mm 6 mps 752 mmHg 65%
    19:00 +15°C° 0 mm 6 mps 752 mmHg 68%
    20:00 +14°C° 0 mm 6 mps 752 mmHg 72%
    21:00 +14°C° 0 mm 6 mps 753 mmHg 75%
    22:00 +13°C° 0 mm 5 mps 753 mmHg 78%
    23:00 +13°C° 0 mm 5 mps 753 mmHg 80%

    Day after tomorrow, 25 April, Thursday

    Time Temperature Precipitation Wind Pressure Humidity
    00:00 +13°C° 0 mm 5 mps 752 mmHg 81%
    01:00 +13°C° 0 mm 5 mps 752 mmHg 82%
    02:00 +13°C° 0 mm 5 mps 752 mmHg 83%
    03:00 +13°C° 0 mm 5 mps 752 mmHg 84%
    04:00 +12°C° 0 mm 5 mps 752 mmHg 84%
    05:00 +14°C° 0 mm 5 mps 752 mmHg 81%
    06:00 +15°C° 0 mm 5 mps 752 mmHg 77%
    07:00 +16°C° 0 mm 5 mps 752 mmHg 74%
    08:00 +19°C° 0 mm 4 mps 752 mmHg 68%
    09:00 +20°C° 0 mm 4 mps 753 mmHg 62%
    10:00 +22°C° 0 mm 4 mps 753 mmHg 56%
    11:00 +23°C° 0 mm 4 mps 752 mmHg 53%
    12:00 +25°C° 0 mm 4 mps 752 mmHg 51%
    13:00 +26°C° 0 mm 4 mps 752 mmHg 48%
    14:00 +25°C° 0 mm 3 mps 752 mmHg 51%
    15:00 +24°C° 0 mm 3 mps 752 mmHg 53%
    16:00 +24°C° 0 mm 3 mps 752 mmHg 56%
    17:00 +21°C° 0 mm 2 mps 752 mmHg 60%
    18:00 +20°C° 0 mm 2 mps 752 mmHg 65%
    19:00 +18°C° 0 mm 2 mps 752 mmHg 69%
    20:00 +18°C° 0 mm 2 mps 752 mmHg 70%
    21:00 +17°C° 0 mm 2 mps 752 mmHg 72%
    22:00 +16°C° 0 mm 2 mps 752 mmHg 73%
    23:00 +16°C° 0 mm 2 mps 752 mmHg 73%

    26 April, Friday

    Time Temperature Precipitation Wind Pressure Humidity
    00:00 +16°C° 0 mm 2 mps 752 mmHg 73%
    01:00 +16°C° 0 mm 2 mps 752 mmHg 73%
    02:00 +15°C° 0 mm 2 mps 751 mmHg 77%
    03:00 +15°C° 0 mm 2 mps 751 mmHg 80%
    04:00 +13°C° 0 mm 3 mps 751 mmHg 83%
    05:00 +16°C° 0 mm 3 mps 751 mmHg 79%
    06:00 +17°C° 0 mm 3 mps 750 mmHg 75%
    07:00 +18°C° 0 mm 3 mps 750 mmHg 71%
    08:00 +20°C° 0 mm 4 mps 750 mmHg 65%
    09:00 +22°C° 0 mm 4 mps 750 mmHg 59%
    10:00 +25°C° 0 mm 4 mps 749 mmHg 53%
    11:00 +26°C° 0 mm 4 mps 749 mmHg 49%
    12:00 +27°C° 0 mm 4 mps 748 mmHg 45%
    13:00 +28°C° 0 mm 4 mps 748 mmHg 42%
    14:00 +28°C° 0 mm 3 mps 748 mmHg 42%
    15:00 +28°C° 0 mm 3 mps 747 mmHg 43%
    16:00 +27°C° 0 mm 3 mps 747 mmHg 44%
    17:00 +26°C° 0 mm 3 mps 747 mmHg 50%
    18:00 +24°C° 0 mm 2 mps 747 mmHg 55%
    19:00 +21°C° 0 mm 2 mps 747 mmHg 61%
    20:00 +20°C° 0.2 mm 2 mps 747 mmHg 64%
    21:00 +19°C° 0.2 mm 2 mps 747 mmHg 68%
    22:00 +19°C° 0.2 mm 2 mps 747 mmHg 71%
    23:00 +18°C° 0.4 mm 2 mps 747 mmHg 74%

    27 April, Saturday

    Time Temperature Precipitation Wind Pressure Humidity
    00:00 +18°C° 0.4 mm 3 mps 747 mmHg 76%
    01:00 +17°C° 0.4 mm 3 mps 746 mmHg 79%
    02:00 +16°C° 0.3 mm 3 mps 746 mmHg 83%
    03:00 +16°C° 0.3 mm 3 mps 746 mmHg 87%
    04:00 +14°C° 0.3 mm 3 mps 746 mmHg 92%
    05:00 +15°C° 0.3 mm 4 mps 746 mmHg 91%
    06:00 +17°C° 0.3 mm 4 mps 746 mmHg 90%
    07:00 +17°C° 0.3 mm 4 mps 746 mmHg 89%
    08:00 +17°C° 0.1 mm 4 mps 747 mmHg 88%
    09:00 +17°C° 0.1 mm 4 mps 747 mmHg 87%
    10:00 +17°C° 0.1 mm 3 mps 747 mmHg 85%
    11:00 +17°C° 0.1 mm 4 mps 748 mmHg 85%
    12:00 +15°C° 0.1 mm 5 mps 748 mmHg 84%
    13:00 +14°C° 0.1 mm 6 mps 748 mmHg 84%
    14:00 +13°C° 0.1 mm 6 mps 748 mmHg 83%
    15:00 +11°C° 0.1 mm 6 mps 749 mmHg 82%
    16:00 +10°C° 0.1 mm 6 mps 749 mmHg 82%
    17:00 +10°C° 0 mm 6 mps 749 mmHg 81%
    18:00 +9°C° 0 mm 5 mps 750 mmHg 80%
    19:00 +9°C° 0 mm 5 mps 750 mmHg 79%
    20:00 +9°C° 0 mm 5 mps 750 mmHg 81%
    21:00 +8°C° 0 mm 4 mps 751 mmHg 82%
    22:00 +8°C° 0 mm 4 mps 751 mmHg 84%
    23:00 +8°C° 0 mm 4 mps 751 mmHg 86%

    28 April, Sunday

    Time Temperature Precipitation Wind Pressure Humidity
    00:00 +8°C° 0 mm 4 mps 751 mmHg 88%
    01:00 +8°C° 0 mm 4 mps 751 mmHg 90%
    02:00 +9°C° 0 mm 3 mps 751 mmHg 92%
    03:00 +8°C° 0 mm 3 mps 751 mmHg 94%
    04:00 +8°C° 0 mm 3 mps 752 mmHg 96%
    05:00 +9°C° 0 mm 3 mps 752 mmHg 92%
    06:00 +10°C° 0 mm 3 mps 752 mmHg 88%
    07:00 +11°C° 0 mm 4 mps 752 mmHg 85%
    08:00 +12°C° 0.1 mm 4 mps 752 mmHg 79%
    09:00 +13°C° 0.1 mm 4 mps 753 mmHg 73%
    10:00 +14°C° 0.1 mm 3 mps 753 mmHg 68%
    11:00 +16°C° 0.1 mm 3 mps 753 mmHg 63%
    12:00 +17°C° 0.1 mm 3 mps 753 mmHg 58%
    13:00 +18°C° 0.1 mm 3 mps 753 mmHg 53%
    14:00 +18°C° 0 mm 3 mps 753 mmHg 53%
    15:00 +18°C° 0 mm 3 mps 753 mmHg 53%
    16:00 +18°C° 0 mm 3 mps 753 mmHg 53%
    17:00 +16°C° 0 mm 2 mps 753 mmHg 59%
    18:00 +15°C° 0 mm 2 mps 753 mmHg 66%
    19:00 +13°C° 0 mm 2 mps 753 mmHg 72%
    20:00 +13°C° 0 mm 2 mps 754 mmHg 76%
    21:00 +12°C° 0 mm 2 mps 754 mmHg 80%
    22:00 +10°C° 0 mm 2 mps 754 mmHg 83%
    23:00 +10°C° 0 mm 2 mps 754 mmHg 85%
    Show more